TimeEST,TemperatureF,Dew PointF,Humidity,Sea Level PressureIn,VisibilityMPH,Wind Direction,Wind SpeedMPH,Gust SpeedMPH,PrecipitationIn,Events,Conditions,WindDirDegrees,DateUTC
12:15 AM,32.9,28.0,82,29.97,10.0,WSW,3.5,-,N/A,,Scattered Clouds,240,2013-02-15 05:15:00
12:35 AM,32.0,27.3,83,29.97,10.0,WSW,4.6,-,N/A,,Clear,240,2013-02-15 05:35:00
12:55 AM,33.1,27.7,81,29.97,10.0,West,4.6,-,N/A,,Clear,260,2013-02-15 05:55:00
1:15 AM,31.5,26.6,82,29.97,10.0,SW,5.8,-,N/A,,Clear,230,2013-02-15 06:15:00
1:35 AM,28.8,25.9,89,29.97,10.0,SW,5.8,-,N/A,,Clear,230,2013-02-15 06:35:00
1:55 AM,30.0,27.1,89,29.97,10.0,WSW,3.5,-,N/A,,Clear,240,2013-02-15 06:55:00
2:15 AM,28.9,25.5,87,29.97,10.0,SW,5.8,-,N/A,,Clear,220,2013-02-15 07:15:00
2:35 AM,28.4,26.1,91,29.97,10.0,SSW,5.8,-,N/A,,Clear,210,2013-02-15 07:35:00
2:55 AM,27.1,25.3,93,29.97,7.0,SSW,6.9,-,N/A,,Clear,200,2013-02-15 07:55:00
3:15 AM,27.3,25.3,92,29.98,7.0,SW,5.8,-,N/A,,Clear,220,2013-02-15 08:15:00
3:35 AM,27.3,25.7,94,29.98,7.0,SW,5.8,-,N/A,,Clear,220,2013-02-15 08:35:00
3:55 AM,27.3,25.7,94,29.98,7.0,WSW,4.6,-,N/A,,Clear,240,2013-02-15 08:55:00
4:15 AM,26.8,24.6,92,29.98,10.0,SW,5.8,-,N/A,,Clear,220,2013-02-15 09:15:00
4:35 AM,28.2,25.5,90,29.98,10.0,WSW,3.5,-,N/A,,Clear,240,2013-02-15 09:35:00
4:55 AM,27.1,24.4,90,29.99,10.0,SW,4.6,-,N/A,,Clear,220,2013-02-15 09:55:00
5:15 AM,28.0,25.3,90,29.99,10.0,North,-9999.0,-,N/A,,Scattered Clouds,0,2013-02-15 10:15:00
5:35 AM,28.2,25.7,90,30.00,10.0,WSW,3.5,-,N/A,,Mostly Cloudy,240,2013-02-15 10:35:00
5:55 AM,30.7,27.3,87,30.01,10.0,North,-9999.0,-,N/A,,Overcast,0,2013-02-15 10:55:00
6:15 AM,30.7,27.5,88,30.01,10.0,North,-9999.0,-,N/A,,Overcast,0,2013-02-15 11:15:00
6:35 AM,30.0,27.5,90,30.01,10.0,North,-9999.0,-,N/A,,Overcast,0,2013-02-15 11:35:00
6:55 AM,30.2,27.9,91,30.01,7.0,North,-9999.0,-,N/A,,Overcast,0,2013-02-15 11:55:00
7:15 AM,31.1,28.2,89,30.02,10.0,North,-9999.0,-,N/A,,Overcast,0,2013-02-15 12:15:00
7:20 AM,30.2,28.4,93,30.02,10.0,Calm,Calm,-,N/A,,Overcast,0,2013-02-15 12:20:00
7:58 AM,30.2,28.4,93,30.03,10.0,Calm,Calm,-,N/A,,Overcast,0,2013-02-15 12:58:00
8:58 AM,33.8,30.2,87,30.06,10.0,WSW,4.6,-,N/A,,Overcast,240,2013-02-15 13:58:00
9:50 AM,35.6,30.2,81,30.06,10.0,SW,3.5,-,N/A,,Overcast,230,2013-02-15 14:50:00
10:50 AM,35.6,28.4,75,30.05,10.0,WNW,5.8,-,N/A,,Overcast,290,2013-02-15 15:50:00
11:50 AM,33.8,30.2,87,30.05,10.0,Calm,Calm,-,N/A,,Overcast,0,2013-02-15 16:50:00
12:05 PM,33.8,28.4,81,30.05,2.5,WNW,3.5,-,N/A,Snow,Light Snow,300,2013-02-15 17:05:00
12:15 PM,33.8,30.2,87,30.04,3.0,NNW,3.5,-,N/A,Snow,Light Snow,340,2013-02-15 17:15:00
12:47 PM,32.0,30.2,93,30.04,3.0,NW,9.2,-,N/A,Snow,Light Snow,320,2013-02-15 17:47:00
1:05 PM,32.0,30.2,93,30.03,2.0,NW,6.9,-,N/A,Snow,Light Snow,320,2013-02-15 18:05:00
1:15 PM,32.0,30.2,93,30.03,1.0,NW,8.1,-,N/A,Snow,Light Snow,320,2013-02-15 18:15:00
1:25 PM,32.0,30.2,93,30.03,0.5,NW,6.9,-,N/A,Snow,Snow,310,2013-02-15 18:25:00
1:50 PM,30.2,30.2,100,30.03,0.8,NW,5.8,-,N/A,Snow,Snow,310,2013-02-15 18:50:00
2:15 PM,32.0,30.2,93,30.03,4.0,WNW,8.1,-,N/A,Snow,Light Snow,300,2013-02-15 19:15:00
2:50 PM,32.0,30.2,93,30.03,7.0,NW,8.1,-,N/A,,Mostly Cloudy,320,2013-02-15 19:50:00
3:50 PM,35.6,30.2,81,30.03,10.0,WNW,8.1,-,N/A,,Mostly Cloudy,300,2013-02-15 20:50:00
4:50 PM,33.8,28.4,81,30.04,10.0,NW,8.1,-,N/A,,Mostly Cloudy,310,2013-02-15 21:50:00
5:50 PM,33.8,28.4,81,30.05,10.0,WNW,6.9,-,N/A,,Overcast,300,2013-02-15 22:50:00
6:50 PM,30.2,28.4,93,30.08,2.5,NW,13.8,-,N/A,Snow,Light Snow,320,2013-02-15 23:50:00
8:15 PM,28.8,23.0,79,30.10,10.0,NW,6.9,-,N/A,,Overcast,320,2013-02-16 01:15:00
8:35 PM,28.2,23.9,84,30.11,10.0,WNW,5.8,-,N/A,,Overcast,300,2013-02-16 01:35:00
8:55 PM,27.1,23.5,86,30.11,10.0,WNW,3.5,-,N/A,,Overcast,290,2013-02-16 01:55:00
9:15 PM,26.8,23.2,86,30.12,10.0,West,3.5,-,N/A,,Mostly Cloudy,280,2013-02-16 02:15:00
9:35 PM,26.6,23.0,86,30.12,10.0,West,3.5,-,N/A,,Mostly Cloudy,280,2013-02-16 02:35:00
9:55 PM,26.1,23.0,88,30.12,10.0,North,-9999.0,-,N/A,,Scattered Clouds,0,2013-02-16 02:55:00
10:15 PM,26.2,23.0,88,30.12,10.0,Calm,Calm,-,N/A,,Scattered Clouds,0,2013-02-16 03:15:00
10:35 PM,25.3,22.8,90,30.12,10.0,North,-9999.0,-,N/A,,Mostly Cloudy,0,2013-02-16 03:35:00
10:55 PM,25.7,23.4,91,30.11,10.0,North,-9999.0,-,N/A,,Overcast,0,2013-02-16 03:55:00
11:15 PM,26.2,23.0,88,30.11,10.0,North,-9999.0,-,N/A,,Overcast,0,2013-02-16 04:15:00
11:35 PM,27.0,22.1,82,30.11,10.0,West,4.6,-,N/A,,Overcast,280,2013-02-16 04:35:00
11:55 PM,26.1,20.8,81,30.11,10.0,West,5.8,-,N/A,,Scattered Clouds,280,2013-02-16 04:55:00